Location: Les Gen�tes
(46.3104°N, 1.5969°E)
Time: 10:05:50
(UTC+00:00)

Cosmos 1741 Rocket - Pass Details

Date: 01 June 2020
Orbit: 762 x 782 km, 74.0° (Epoch: 04 July)

Event Time Altitude Azimuth Distance (km) Brightness Sun altitude
Rises 20:27:01 0° 339° (NNW) 3,236 8.6 -7.4°
Reaches altitude 10° 20:29:25 10° 342° (NNW) 2,306 7.6 -7.7°
Maximum altitude 20:34:39 72° 67° (ENE) 805 4.1 -8.3°
Enters shadow 20:39:50 10° 152° (SSE) 2,290 5.8 -8.9°
